Coffeeville Lake Weather Center

Moon Phase Calendar



Coffeeville Lake Water Level
Online Cameras

 


      

Current Conditions in Butler
7/24/2024 1:36:00 AM

76°F
Feels Like 77
Rain
Humidity
94%
Pressure
30.09"
Wind
2.5 mph (SE)
Dew Point
74°F
UV Index
0/10 (Low)
Visibility
6 mi

Hourly Forecast

Date & Time Wed, Jul 24
1:00 AM
Wed, Jul 24
2:00 AM
Wed, Jul 24
3:00 AM
Wed, Jul 24
4:00 AM
Wed, Jul 24
5:00 AM
Wed, Jul 24
6:00 AM
Wed, Jul 24
7:00 AM
Wed, Jul 24
8:00 AM
Wed, Jul 24
9:00 AM
Wed, Jul 24
10:00 AM
Wed, Jul 24
11:00 AM
Wed, Jul 24
12:00 PM
Wed, Jul 24
1:00 PM
Wed, Jul 24
2:00 PM
Wed, Jul 24
3:00 PM
Wed, Jul 24
4:00 PM
Wed, Jul 24
5:00 PM
Wed, Jul 24
6:00 PM
Wed, Jul 24
7:00 PM
Wed, Jul 24
8:00 PM
Wed, Jul 24
9:00 PM
Wed, Jul 24
10:00 PM
Wed, Jul 24
11:00 PM
Thu, Jul 25
12:00 AM
Thu, Jul 25
1:00 AM
Thu, Jul 25
2:00 AM
Thu, Jul 25
3:00 AM
Thu, Jul 25
4:00 AM
Thu, Jul 25
5:00 AM
Thu, Jul 25
6:00 AM
Thu, Jul 25
7:00 AM
Thu, Jul 25
8:00 AM
Thu, Jul 25
9:00 AM
Thu, Jul 25
10:00 AM
Thu, Jul 25
11:00 AM
Thu, Jul 25
12:00 PM
Thu, Jul 25
1:00 PM
Thu, Jul 25
2:00 PM
Thu, Jul 25
3:00 PM
Thu, Jul 25
4:00 PM
Thu, Jul 25
5:00 PM
Thu, Jul 25
6:00 PM
Thu, Jul 25
7:00 PM
Thu, Jul 25
8:00 PM
Thu, Jul 25
9:00 PM
Thu, Jul 25
10:00 PM
Thu, Jul 25
11:00 PM
Fri, Jul 26
12:00 AM
Condition
Clouds

Clouds

Clouds

Clouds

Clouds

Clouds

Clouds

Clouds

Clouds

Clouds

Clouds

Rain

Rain

Rain

Rain

Rain

Rain

Rain

Clouds

Clouds

Clouds

Clouds

Clouds

Clouds

Clouds

Clouds

Clouds

Clouds

Clouds

Clouds

Clouds

Clouds

Clouds

Clouds

Clouds

Clouds

Clouds

Clouds

Clouds

Clouds

Clouds

Clouds

Clouds

Clouds

Clouds

Clouds

Clouds

Clouds
Temperature 75°F76°F75°F74°F74°F73°F73°F74°F76°F79°F85°F87°F83°F76°F74°F74°F75°F74°F73°F72°F71°F71°F71°F70°F70°F69°F69°F69°F68°F68°F70°F73°F77°F81°F83°F85°F88°F87°F89°F90°F89°F83°F78°F76°F75°F74°F72°F72°F
Feels Like 76°F77°F77°F76°F75°F74°F75°F75°F77°F79°F91°F95°F91°F78°F76°F76°F76°F76°F75°F74°F73°F72°F72°F72°F71°F71°F70°F70°F70°F69°F71°F74°F78°F84°F86°F89°F91°F90°F92°F93°F92°F87°F79°F77°F76°F75°F74°F73°F
Cloudiness 100%100%100%100%100%100%100%100%100%100%100%100%100%100%100%100%100%100%100%96%96%97%98%98%89%89%86%89%86%84%81%87%78%85%89%91%93%100%100%100%100%100%100%100%100%100%100%100%
Visibility 6 mi6 mi6 mi6 mi6 mi6 mi6 mi6 mi6 mi6 mi6 mi6 mi4 mi1 mi1 mi5 mi6 mi6 mi6 mi6 mi6 mi6 mi6 mi6 mi6 mi6 mi6 mi6 mi6 mi6 mi6 mi6 mi6 mi6 mi6 mi6 mi6 mi6 mi6 mi6 mi6 mi6 mi6 mi6 mi6 mi6 mi6 mi6 mi
Precipitation 13%0%0%0%0%0%0%0%0%0%0%25%100%100%100%100%100%100%80%0%0%0%0%0%0%0%0%0%0%0%0%0%0%0%0%0%0%0%0%0%0%0%0%2%0%0%0%0%
Humidity 94%94%94%94%95%95%94%94%88%78%65%63%76%95%98%97%97%98%97%98%99%99%99%98%98%98%97%97%96%96%94%88%78%66%60%55%51%52%48%47%50%66%76%82%85%87%89%88%
Dew Point 73°F74°F73°F72°F72°F72°F71°F71°F72°F72°F72°F73°F75°F74°F73°F73°F74°F73°F72°F72°F71°F70°F70°F69°F69°F69°F68°F68°F67°F67°F68°F69°F69°F68°F68°F68°F68°F67°F67°F67°F68°F70°F70°F70°F70°F69°F69°F69°F
Pressure 30.09"30.09"30.09"30.09"30.09"30.12"30.12"30.15"30.15"30.15"30.15"30.12"30.12"30.12"30.12"30.12"30.12"30.12"30.12"30.15"30.15"30.15"30.18"30.18"30.15"30.15"30.15"30.15"30.12"30.15"30.15"30.15"30.15"30.15"30.15"30.15"30.15"30.12"30.09"30.09"30.09"30.09"30.09"30.09"30.12"30.12"30.12"30.12"
Wind Speed 3.7 mph2.5 mph1.3 mph3.1 mph3.2 mph0.4 mph2.3 mph2.5 mph3.8 mph4.5 mph3.7 mph2.1 mph2.3 mph6.5 mph3.6 mph2.7 mph5.5 mph6.4 mph7.4 mph5.5 mph3.3 mph3.2 mph3.2 mph3.2 mph3.1 mph2.2 mph1.8 mph1.7 mph0.6 mph0.4 mph0.8 mph0.8 mph0.9 mph1.9 mph3.1 mph3.9 mph3.6 mph3.6 mph3.9 mph3.6 mph5.2 mph7.4 mph7.3 mph2.4 mph3.4 mph3.8 mph3.8 mph3.6 mph
Wind
Direction
119°
ESE
146°
SE
156°
SSE
115°
ESE
111°
ESE
171°
S
36°
NE
57°
ENE
57°
ENE
56°
NE
68°
ENE
98°
E
199°
SSW
231°
SW
245°
WSW
283°
WNW
293°
WNW
344°
NNW

N
11°
N
16°
NNE
353°
N
340°
NNW
351°
N

N
15°
NNE
40°
NE
79°
E
74°
ENE
69°
ENE
37°
NE
45°
NE
20°
NNE
324°
NW
321°
NW
313°
NW
300°
WNW
296°
WNW
300°
WNW
308°
NW
306°
NW
313°
NW
321°
NW
295°
WNW
274°
W
331°
NNW
350°
N
337°
NNW

Daily Forecast

Date High Low Precip. Humidity
Today
Jul 24

Rain
87 °F
71 °F
100%
63%
Thursday
Jul 25

Clouds
90 °F
68 °F
2%
55%
Friday
Jul 26

Rain
91 °F
69 °F
97%
66%
Saturday
Jul 27

Rain
95 °F
72 °F
100%
43%
Sunday
Jul 28

Rain
95 °F
73 °F
99%
45%
Monday
Jul 29

Rain
96 °F
75 °F
100%
59%
Tuesday
Jul 30

Rain
90 °F
76 °F
100%
63%
Wednesday
Jul 31

Rain
94 °F
75 °F
100%
52%
Thursday
Aug 1

Rain
97 °F
74 °F
100%
43%
Friday
Aug 2

Rain
99 °F
74 °F
100%
43%
Saturday
Aug 3

Rain
97 °F
74 °F
24%
43%
Sunday
Aug 4

Rain
95 °F
75 °F
63%
44%
Monday
Aug 5

Rain
96 °F
74 °F
88%
42%
Tuesday
Aug 6

Rain
88 °F
75 °F
100%
85%
Wednesday
Aug 7

Clear
98 °F
75 °F
0%
41%
Thursday
Aug 8

Clouds
102 °F
76 °F
0%
39%

Temperature 8-14 Day Outlook



Precipitation 8-14 Day Outlook






About Us
Contact Us
Site Map
Search Site
Advertise With Us
   
Coffeeville.USLakes.info
THE COFFEEVILLE LAKE WEBSITE

Copyright 2024, Lakes Online
Privacy    |    Legal